Previsão horária em Plotnica

Hoje, 27 Fevereiro, Sábado

Tempo Temperatura Precipitação Vento Pressão Humidade
00:00 -2°C° 0.2 mm 7 m/s 737 mmHg 96%
01:00 -6°C° 0.4 mm 7 m/s 738 mmHg 94%
02:00 -8°C° 0.4 mm 7 m/s 738 mmHg 91%
03:00 -11°C° 0 mm 6 m/s 739 mmHg 89%
04:00 -14°C° 0 mm 6 m/s 740 mmHg 89%
05:00 -14°C° 0 mm 5 m/s 740 mmHg 90%
06:00 -16°C° 0 mm 4 m/s 741 mmHg 90%
07:00 -16°C° 0 mm 4 m/s 742 mmHg 90%
08:00 -15°C° 0 mm 3 m/s 743 mmHg 90%
09:00 -15°C° 0 mm 3 m/s 743 mmHg 91%
10:00 -14°C° 0 mm 3 m/s 744 mmHg 90%
11:00 -12°C° 0 mm 2 m/s 744 mmHg 89%
12:00 -10°C° 0 mm 2 m/s 745 mmHg 88%
13:00 -9°C° 0 mm 2 m/s 745 mmHg 88%
14:00 -9°C° 0 mm 3 m/s 746 mmHg 88%
15:00 -8°C° 0 mm 3 m/s 746 mmHg 91%
16:00 -7°C° 0 mm 2 m/s 746 mmHg 92%
17:00 -8°C° 0 mm 2 m/s 746 mmHg 94%
18:00 -8°C° 0 mm 2 m/s 747 mmHg 96%
19:00 -8°C° 0 mm 2 m/s 747 mmHg 96%
20:00 -8°C° 0 mm 2 m/s 748 mmHg 96%
21:00 -6°C° 0 mm 1 m/s 748 mmHg 96%
22:00 -7°C° 0.1 mm 1 m/s 748 mmHg 96%
23:00 -7°C° 0.1 mm 1 m/s 748 mmHg 96%

Amanhã, 28 Fevereiro, Domingo

Tempo Temperatura Precipitação Vento Pressão Humidade
00:00 -7°C° 0.1 mm 1 m/s 748 mmHg 96%
01:00 -7°C° 0.1 mm 1 m/s 748 mmHg 96%
02:00 -7°C° 0.1 mm 1 m/s 749 mmHg 96%
03:00 -7°C° 0.1 mm 1 m/s 749 mmHg 96%
04:00 -7°C° 0.1 mm 1 m/s 749 mmHg 96%
05:00 -7°C° 0.1 mm 1 m/s 749 mmHg 96%
06:00 -7°C° 0.1 mm 1 m/s 749 mmHg 96%
07:00 -6°C° 0 mm 1 m/s 749 mmHg 96%
08:00 -6°C° 0 mm 1 m/s 749 mmHg 96%
09:00 -4°C° 0 mm 1 m/s 749 mmHg 96%
10:00 -3°C° 0 mm 1 m/s 749 mmHg 94%
11:00 -2°C° 0 mm 1 m/s 749 mmHg 92%
12:00 -1°C° 0 mm 1 m/s 749 mmHg 90%
13:00 -1°C° 0 mm 1 m/s 749 mmHg 90%
14:00 0°C° 0 mm 1 m/s 750 mmHg 89%
15:00 0°C° 0 mm 1 m/s 750 mmHg 89%
16:00 -1°C° 0 mm 1 m/s 750 mmHg 90%
17:00 -2°C° 0 mm 1 m/s 750 mmHg 90%
18:00 -2°C° 0 mm 1 m/s 750 mmHg 91%
19:00 -3°C° 0 mm 1 m/s 751 mmHg 92%
20:00 -4°C° 0 mm 0 m/s 752 mmHg 93%
21:00 -4°C° 0 mm 0 m/s 752 mmHg 93%
22:00 -5°C° 0 mm 0 m/s 753 mmHg 94%
23:00 -4°C° 0 mm 1 m/s 753 mmHg 95%

Depois de amanhã, 1 Março, Segunda-feira

Tempo Temperatura Precipitação Vento Pressão Humidade
00:00 -4°C° 0 mm 1 m/s 753 mmHg 95%
01:00 -6°C° 0 mm 1 m/s 754 mmHg 95%
02:00 -6°C° 0 mm 1 m/s 754 mmHg 96%
03:00 -7°C° 0 mm 1 m/s 754 mmHg 96%
04:00 -7°C° 0 mm 1 m/s 754 mmHg 96%
05:00 -8°C° 0 mm 1 m/s 754 mmHg 95%
06:00 -8°C° 0 mm 1 m/s 754 mmHg 95%
07:00 -8°C° 0 mm 1 m/s 754 mmHg 95%
08:00 -8°C° 0 mm 2 m/s 754 mmHg 95%
09:00 -7°C° 0 mm 2 m/s 754 mmHg 95%
10:00 -6°C° 0 mm 2 m/s 754 mmHg 95%
11:00 -5°C° 0 mm 3 m/s 754 mmHg 95%
12:00 -2°C° 0 mm 3 m/s 753 mmHg 95%
13:00 -3°C° 0 mm 4 m/s 753 mmHg 94%
14:00 -2°C° 0 mm 4 m/s 753 mmHg 94%
15:00 -1°C° 0 mm 4 m/s 752 mmHg 94%
16:00 -1°C° 0 mm 4 m/s 751 mmHg 94%
17:00 -1°C° 0 mm 5 m/s 751 mmHg 93%
18:00 -2°C° 0 mm 5 m/s 750 mmHg 93%
19:00 -1°C° 0 mm 5 m/s 749 mmHg 93%
20:00 -1°C° 0 mm 5 m/s 749 mmHg 93%
21:00 -1°C° 0 mm 5 m/s 748 mmHg 93%
22:00 -1°C° 0 mm 5 m/s 748 mmHg 93%
23:00 -1°C° 0 mm 5 m/s 747 mmHg 92%

2 Março, Terça-feira

Tempo Temperatura Precipitação Vento Pressão Humidade
00:00 -1°C° 0 mm 5 m/s 746 mmHg 92%
01:00 -1°C° 0.1 mm 5 m/s 745 mmHg 94%
02:00 -1°C° 0.1 mm 5 m/s 745 mmHg 95%
03:00 -2°C° 0.1 mm 6 m/s 744 mmHg 97%
04:00 -1°C° 0.1 mm 5 m/s 744 mmHg 95%
05:00 -2°C° 0.1 mm 5 m/s 744 mmHg 93%
06:00 -2°C° 0.1 mm 5 m/s 744 mmHg 92%
07:00 -3°C° 0 mm 6 m/s 744 mmHg 89%
08:00 -3°C° 0 mm 6 m/s 744 mmHg 86%
09:00 -3°C° 0 mm 6 m/s 744 mmHg 83%
10:00 -3°C° 0 mm 6 m/s 745 mmHg 83%
11:00 -3°C° 0 mm 6 m/s 745 mmHg 84%
12:00 -3°C° 0 mm 6 m/s 745 mmHg 84%
13:00 -3°C° 0 mm 6 m/s 745 mmHg 84%
14:00 -3°C° 0 mm 6 m/s 745 mmHg 83%
15:00 -3°C° 0 mm 6 m/s 746 mmHg 83%
16:00 -3°C° 0.1 mm 6 m/s 746 mmHg 86%
17:00 -3°C° 0.1 mm 6 m/s 746 mmHg 89%
18:00 -4°C° 0.1 mm 6 m/s 746 mmHg 92%
19:00 -4°C° 0.1 mm 5 m/s 746 mmHg 91%
20:00 -4°C° 0.1 mm 5 m/s 747 mmHg 90%
21:00 -5°C° 0.1 mm 5 m/s 747 mmHg 89%
22:00 -5°C° 0 mm 5 m/s 747 mmHg 90%
23:00 -5°C° 0 mm 4 m/s 747 mmHg 91%

3 Março, Quarta-feira

Tempo Temperatura Precipitação Vento Pressão Humidade
00:00 -5°C° 0 mm 4 m/s 748 mmHg 92%
01:00 -6°C° 0 mm 5 m/s 748 mmHg 91%
02:00 -6°C° 0 mm 5 m/s 748 mmHg 90%
03:00 -7°C° 0 mm 5 m/s 749 mmHg 90%
04:00 -7°C° 0 mm 5 m/s 749 mmHg 90%
05:00 -8°C° 0 mm 4 m/s 749 mmHg 90%
06:00 -8°C° 0 mm 4 m/s 749 mmHg 90%
07:00 -8°C° 0.1 mm 4 m/s 750 mmHg 91%
08:00 -8°C° 0.1 mm 5 m/s 750 mmHg 92%
09:00 -7°C° 0.1 mm 5 m/s 751 mmHg 93%
10:00 -6°C° 0.1 mm 5 m/s 751 mmHg 90%
11:00 -6°C° 0.1 mm 5 m/s 751 mmHg 87%
12:00 -5°C° 0.1 mm 5 m/s 752 mmHg 84%
13:00 -5°C° 0 mm 5 m/s 752 mmHg 83%
14:00 -5°C° 0 mm 5 m/s 752 mmHg 82%
15:00 -5°C° 0 mm 5 m/s 752 mmHg 80%
16:00 -4°C° 0 mm 4 m/s 752 mmHg 83%
17:00 -5°C° 0 mm 3 m/s 752 mmHg 86%
18:00 -6°C° 0 mm 3 m/s 752 mmHg 88%
19:00 -6°C° 0 mm 3 m/s 752 mmHg 90%
20:00 -6°C° 0 mm 3 m/s 752 mmHg 91%
21:00 -7°C° 0 mm 3 m/s 752 mmHg 92%
22:00 -6°C° 0 mm 2 m/s 752 mmHg 93%
23:00 -6°C° 0 mm 2 m/s 752 mmHg 94%

4 Março, Quinta-feira

Tempo Temperatura Precipitação Vento Pressão Humidade
00:00 -6°C° 0 mm 2 m/s 751 mmHg 95%
01:00 -6°C° 0 mm 2 m/s 751 mmHg 96%
02:00 -7°C° 0 mm 2 m/s 751 mmHg 96%
03:00 -7°C° 0 mm 2 m/s 750 mmHg 96%
04:00 -8°C° 0 mm 3 m/s 749 mmHg 96%
05:00 -7°C° 0 mm 3 m/s 749 mmHg 95%
06:00 -7°C° 0 mm 3 m/s 748 mmHg 95%
07:00 -7°C° 0 mm 4 m/s 747 mmHg 93%
08:00 -7°C° 0 mm 4 m/s 747 mmHg 92%
09:00 -6°C° 0 mm 5 m/s 746 mmHg 91%
10:00 -5°C° 0 mm 5 m/s 745 mmHg 91%
11:00 -4°C° 0 mm 5 m/s 745 mmHg 91%
12:00 -2°C° 0 mm 5 m/s 744 mmHg 91%
13:00 -2°C° 0 mm 5 m/s 743 mmHg 90%
14:00 -2°C° 0 mm 6 m/s 742 mmHg 90%
15:00 -2°C° 0 mm 6 m/s 742 mmHg 89%
16:00 -2°C° 0 mm 6 m/s 741 mmHg 88%
17:00 -2°C° 0 mm 6 m/s 741 mmHg 87%
18:00 -1°C° 0 mm 5 m/s 740 mmHg 87%
19:00 -1°C° 0 mm 5 m/s 740 mmHg 90%
20:00 -1°C° 0 mm 5 m/s 739 mmHg 93%
21:00 -1°C° 0 mm 5 m/s 739 mmHg 96%
22:00 -2°C° 0.1 mm 4 m/s 739 mmHg 95%
23:00 -2°C° 0.1 mm 4 m/s 739 mmHg 94%
Mostrar mais

Necessitamos do seu Consentimento

A Meteoprog e os seus Fornecedores de Serviços podem armazenar e aceder a dados pessoais como cookies, identificadores do dispositivo ou outras tecnologias semelhantes existentes no seu dispositivo e processar estes dados para personalizar conteúdos e anúncios, assim como funcionalidades nas redes sociais e análise de tráfego.

  • Armazenar e/ou aceder a informações no seu dispositivo

    Os cookies, identificadores do dispositivo ou outras informações podem ser armazenados ou acedidos no seu dispositivo, para os fins acima indicados.

  • Anúncios e conteúdos personalizados, medição de anúncios e conteúdos, dados sobre o público-alvo e desenvolvimento de produtos

    Os anúncios e os conteúdos podem ser personalizados com base num perfil. Podem ser adicionados dados adicionais para uma maior personalização dos anúncios e dos conteúdos. A eficácia dos anúncios e dos conteúdos pode ser medida. Podem ser obtidas informações sobre o público que visualizou os anúncios e os conteúdos. Estes dados podem ser usados para desenvolver ou melhorar sistemas, softwares ou a experiência do utilizador.

Ao clicar em "Eu concordo”, permitirá o uso de cookies, identificadores do dispositivo e web beacons mencionados ou outras tecnologias semelhantes. As configurações do navegador do seu dispositivo podem ser alteradas.

Para certos fins, podem ser invocados interesses legítimos ao invés de consentimento. Pode ler mais informação sobre este assunto na nossa Política de Privacidade e Cookies.